• In Hungary
  • List of Countries
  • For 7 days
  • Water Temperature
  • Satellite Maps
  • Weather Map
  • News
  • Weather Widgets
  • user-avatar
    Login

    Hourly Weather San José de Bocay

    Today, 22 October, Sunday

    Time Temperature Precipitation Wind Pressure Humidity
    00:00 +21°C° 0 mm 0 mps 715 mmHg 98%
    01:00 +21°C° 0 mm 0 mps 715 mmHg 98%
    02:00 +21°C° 0 mm 0 mps 715 mmHg 98%
    03:00 +20°C° 0 mm 0 mps 715 mmHg 98%
    04:00 +20°C° 0 mm 0 mps 715 mmHg 98%
    05:00 +20°C° 0 mm 0 mps 715 mmHg 98%
    06:00 +20°C° 0 mm 0 mps 715 mmHg 97%
    07:00 +23°C° 0 mm 0 mps 716 mmHg 89%
    08:00 +27°C° 0 mm 1 mps 716 mmHg 81%
    09:00 +29°C° 0 mm 1 mps 717 mmHg 73%
    10:00 +29°C° 0.2 mm 1 mps 716 mmHg 70%
    11:00 +30°C° 0.2 mm 1 mps 716 mmHg 68%
    12:00 +31°C° 0.2 mm 1 mps 716 mmHg 66%
    13:00 +30°C° 1.4 mm 1 mps 715 mmHg 74%
    14:00 +29°C° 1.4 mm 1 mps 715 mmHg 82%
    15:00 +28°C° 1.4 mm 1 mps 714 mmHg 90%
    16:00 +27°C° 1 mm 1 mps 714 mmHg 92%
    17:00 +26°C° 1 mm 1 mps 714 mmHg 95%
    18:00 +24°C° 1 mm 1 mps 715 mmHg 97%
    19:00 +24°C° 0.2 mm 1 mps 715 mmHg 97%
    20:00 +24°C° 0.2 mm 1 mps 716 mmHg 97%
    21:00 +22°C° 0.2 mm 0 mps 716 mmHg 98%
    22:00 +22°C° 0.1 mm 0 mps 716 mmHg 98%
    23:00 +21°C° 0.1 mm 0 mps 716 mmHg 98%

    Tomorrow, 23 October, Monday

    Time Temperature Precipitation Wind Pressure Humidity
    00:00 +21°C° 0.1 mm 0 mps 716 mmHg 98%
    01:00 +21°C° 0 mm 0 mps 715 mmHg 98%
    02:00 +21°C° 0 mm 0 mps 715 mmHg 98%
    03:00 +23°C° 0 mm 1 mps 715 mmHg 98%
    04:00 +23°C° 0 mm 1 mps 715 mmHg 98%
    05:00 +23°C° 0 mm 1 mps 715 mmHg 98%
    06:00 +23°C° 0 mm 1 mps 715 mmHg 98%
    07:00 +24°C° 0 mm 1 mps 716 mmHg 93%
    08:00 +26°C° 0 mm 1 mps 716 mmHg 87%
    09:00 +27°C° 0 mm 1 mps 716 mmHg 82%
    10:00 +28°C° 0.6 mm 1 mps 716 mmHg 83%
    11:00 +28°C° 0.6 mm 1 mps 716 mmHg 84%
    12:00 +29°C° 0.6 mm 1 mps 715 mmHg 84%
    13:00 +28°C° 1.5 mm 1 mps 715 mmHg 87%
    14:00 +28°C° 1.5 mm 1 mps 714 mmHg 90%
    15:00 +27°C° 1.5 mm 1 mps 713 mmHg 93%
    16:00 +26°C° 0.6 mm 1 mps 714 mmHg 95%
    17:00 +25°C° 0.6 mm 1 mps 714 mmHg 96%
    18:00 +24°C° 0.6 mm 1 mps 714 mmHg 97%
    19:00 +24°C° 0.1 mm 1 mps 714 mmHg 98%
    20:00 +24°C° 0.1 mm 1 mps 715 mmHg 98%
    21:00 +24°C° 0.1 mm 1 mps 715 mmHg 98%
    22:00 +22°C° 0 mm 0 mps 715 mmHg 98%
    23:00 +21°C° 0 mm 0 mps 715 mmHg 98%

    Day after tomorrow, 24 October, Tuesday

    Time Temperature Precipitation Wind Pressure Humidity
    00:00 +21°C° 0 mm 0 mps 715 mmHg 98%
    01:00 +21°C° 0 mm 0 mps 714 mmHg 98%
    02:00 +21°C° 0 mm 0 mps 714 mmHg 98%
    03:00 +23°C° 0 mm 1 mps 714 mmHg 98%
    04:00 +23°C° 0 mm 1 mps 714 mmHg 98%
    05:00 +23°C° 0 mm 1 mps 714 mmHg 98%
    06:00 +23°C° 0 mm 1 mps 714 mmHg 97%
    07:00 +24°C° 0.3 mm 1 mps 715 mmHg 94%
    08:00 +26°C° 0.3 mm 1 mps 715 mmHg 92%
    09:00 +27°C° 0.3 mm 1 mps 716 mmHg 89%
    10:00 +27°C° 0.9 mm 1 mps 715 mmHg 90%
    11:00 +27°C° 0.9 mm 1 mps 715 mmHg 91%
    12:00 +27°C° 0.9 mm 1 mps 714 mmHg 92%
    13:00 +26°C° 1.4 mm 1 mps 714 mmHg 94%
    14:00 +26°C° 1.4 mm 1 mps 713 mmHg 95%
    15:00 +25°C° 1.4 mm 1 mps 713 mmHg 96%
    16:00 +25°C° 1.4 mm 1 mps 713 mmHg 97%
    17:00 +24°C° 1.4 mm 1 mps 713 mmHg 97%
    18:00 +24°C° 1.4 mm 1 mps 714 mmHg 98%
    19:00 +24°C° 1.4 mm 1 mps 714 mmHg 98%
    20:00 +22°C° 1.4 mm 0 mps 715 mmHg 98%
    21:00 +21°C° 1.4 mm 0 mps 715 mmHg 98%
    22:00 +21°C° 1.1 mm 0 mps 715 mmHg 98%
    23:00 +21°C° 1.1 mm 0 mps 715 mmHg 98%

    25 October, Wednesday

    Time Temperature Precipitation Wind Pressure Humidity
    00:00 +21°C° 1.1 mm 0 mps 715 mmHg 98%
    01:00 +21°C° 1.2 mm 0 mps 714 mmHg 98%
    02:00 +21°C° 1.2 mm 0 mps 714 mmHg 98%
    03:00 +23°C° 1.2 mm 1 mps 713 mmHg 98%
    04:00 +23°C° 0.7 mm 1 mps 714 mmHg 98%
    05:00 +23°C° 0.7 mm 1 mps 714 mmHg 98%
    06:00 +23°C° 0.7 mm 1 mps 714 mmHg 98%
    07:00 +23°C° 0.3 mm 1 mps 715 mmHg 97%
    08:00 +23°C° 0.3 mm 1 mps 715 mmHg 97%
    09:00 +24°C° 0.3 mm 1 mps 716 mmHg 96%
    10:00 +24°C° 0.6 mm 1 mps 715 mmHg 96%
    11:00 +24°C° 0.6 mm 1 mps 715 mmHg 96%
    12:00 +24°C° 0.6 mm 1 mps 714 mmHg 96%
    13:00 +24°C° 0.7 mm 1 mps 714 mmHg 95%
    14:00 +24°C° 0.7 mm 1 mps 713 mmHg 95%
    15:00 +24°C° 0.7 mm 1 mps 713 mmHg 95%
    16:00 +24°C° 1.4 mm 1 mps 713 mmHg 96%
    17:00 +23°C° 1.4 mm 1 mps 714 mmHg 97%
    18:00 +23°C° 1.4 mm 1 mps 714 mmHg 98%
    19:00 +23°C° 1.5 mm 1 mps 715 mmHg 98%
    20:00 +23°C° 1.5 mm 1 mps 715 mmHg 98%
    21:00 +23°C° 1.5 mm 1 mps 716 mmHg 98%
    22:00 +22°C° 0.3 mm 1 mps 716 mmHg 98%
    23:00 +22°C° 0.3 mm 1 mps 715 mmHg 98%

    26 October, Thursday

    Time Temperature Precipitation Wind Pressure Humidity
    00:00 +22°C° 0.3 mm 1 mps 715 mmHg 98%
    01:00 +22°C° 0.1 mm 1 mps 715 mmHg 98%
    02:00 +22°C° 0.1 mm 1 mps 714 mmHg 98%
    03:00 +22°C° 0.1 mm 1 mps 714 mmHg 97%
    04:00 +22°C° 0 mm 1 mps 714 mmHg 97%
    05:00 +22°C° 0 mm 1 mps 715 mmHg 97%
    06:00 +21°C° 0 mm 1 mps 715 mmHg 97%
    07:00 +23°C° 0 mm 1 mps 716 mmHg 91%
    08:00 +24°C° 0 mm 2 mps 716 mmHg 84%
    09:00 +26°C° 0 mm 2 mps 717 mmHg 78%
    10:00 +26°C° 0.1 mm 2 mps 716 mmHg 78%
    11:00 +26°C° 0.1 mm 2 mps 715 mmHg 78%
    12:00 +27°C° 0.1 mm 2 mps 715 mmHg 78%
    13:00 +26°C° 0.5 mm 2 mps 714 mmHg 84%
    14:00 +25°C° 0.5 mm 1 mps 714 mmHg 89%
    15:00 +24°C° 0.5 mm 1 mps 714 mmHg 94%
    16:00 +24°C° 0.6 mm 1 mps 714 mmHg 95%
    17:00 +23°C° 0.6 mm 1 mps 714 mmHg 95%
    18:00 +22°C° 0.6 mm 1 mps 715 mmHg 96%
    19:00 +22°C° 0.2 mm 1 mps 715 mmHg 96%
    20:00 +22°C° 0.2 mm 1 mps 716 mmHg 96%
    21:00 +21°C° 0.2 mm 1 mps 716 mmHg 96%
    22:00 +21°C° 0.3 mm 1 mps 716 mmHg 96%
    23:00 +21°C° 0.3 mm 1 mps 715 mmHg 96%

    27 October, Friday

    Time Temperature Precipitation Wind Pressure Humidity
    00:00 +20°C° 0.3 mm 1 mps 715 mmHg 96%
    01:00 +20°C° 0.5 mm 1 mps 714 mmHg 96%
    02:00 +20°C° 0.5 mm 1 mps 714 mmHg 96%
    03:00 +20°C° 0.5 mm 1 mps 714 mmHg 96%
    04:00 +20°C° 0.4 mm 1 mps 714 mmHg 96%
    05:00 +20°C° 0.4 mm 1 mps 714 mmHg 96%
    06:00 +20°C° 0.4 mm 1 mps 715 mmHg 96%
    07:00 +21°C° 0.2 mm 1 mps 715 mmHg 95%
    08:00 +20°C° 0.2 mm 0 mps 716 mmHg 94%
    09:00 +21°C° 0.2 mm 0 mps 716 mmHg 93%
    10:00 +21°C° 0.3 mm 0 mps 716 mmHg 92%
    11:00 +22°C° 0.3 mm 0 mps 715 mmHg 91%
    12:00 +22°C° 0.3 mm 0 mps 715 mmHg 91%
    13:00 +22°C° 0.9 mm 0 mps 714 mmHg 92%
    14:00 +22°C° 0.9 mm 0 mps 714 mmHg 94%
    15:00 +21°C° 0.9 mm 0 mps 714 mmHg 96%
    16:00 +21°C° 0.3 mm 0 mps 714 mmHg 96%
    17:00 +21°C° 0.3 mm 0 mps 715 mmHg 96%
    18:00 +20°C° 0.3 mm 0 mps 715 mmHg 97%
    19:00 +20°C° 0 mm 0 mps 716 mmHg 97%
    20:00 +22°C° 0 mm 1 mps 716 mmHg 97%
    21:00 +22°C° 0 mm 1 mps 716 mmHg 97%
    22:00 +21°C° 0 mm 1 mps 716 mmHg 97%
    23:00 +21°C° 0 mm 1 mps 716 mmHg 97%
    Show more